Weather History for New Richmond, WI

Change the Weather History Date:

Thursday, February 28, 2013

  Actual Average (KMSP) Record (KMSP)
Temperature  
Mean Temperature 26 °F 26 °F  
Max Temperature 30 °F 34 °F 57 °F (1932)
Min Temperature 23 °F 18 °F -26 °F (1962)
Degree Days  
Heating Degree Days 38 39  
Month to date heating degree days 1237  
Since 1 July heating degree days 5790  
Cooling Degree Days 0 0  
Month to date cooling degree days 0  
Year to date cooling degree days 0  
Moisture  
Dew Point 20 °F    
Average Humidity 73    
Maximum Humidity 80    
Minimum Humidity 64    
Precipitation  
Precipitation 0.00 in 0.04 in 0.70 in (2012)
Month to date precipitation 0.77  
Year to date precipitation 1.67  
Snow  
Snow 0.00 in 0.30 in 8.00 in (1907)
Month to date snowfall 7.7  
Since 1 July snowfall 41.7  
Snow Depth -    
Sea Level Pressure  
Sea Level Pressure 30.12 in    
Wind  
Wind Speed 12 mph (NNE)    
Max Wind Speed 18 mph    
Max Gust Speed 25 mph    
Visibility 10 miles    
Events      
T = Trace of Precipitation, MM = Missing Value Source: NWS Daily Summary

Daily Weather History Graph

Daily Weather History Graph

Search for Another Location

Airport:

Trip Planner

Search our weather history database for the weather conditions in past years. The results will help you decide how hot, cold, wet, or windy it might be!

Date:

Astronomy

Feb. 28, 2013 Rise Set
Actual Time 6:49 AM CST 5:56 PM CST
Civil Twilight 6:19 AM CST 6:26 PM CST
Nautical Twilight 5:45 AM CST 7:00 PM CST
Astronomical Twilight 5:11 AM CST 7:34 PM CST
Moon 9:36 PM CST (2/28) 7:48 AM CST (2/28)
Length of Visible Light 12h 06m
Length of Day
11h 07m
Waning Gibbous, 90% of the Moon is Illuminated
Feb 28
Waning Gibbous
Mar 4
Last Quarter
Mar 11
New
Mar 19
First Quarter
Mar 27
Full

Hourly Weather History & Observations

Time (CST) Temp. Windchill Dew Point Humidity Pressure Visibility Wind Dir Wind Speed Gust Speed Precip Events Conditions
12:15 AM 28.4 °F 20.4 °F 23.0 °F 80% 30.00 in 10.0 mi NNW 8.1 mph - N/A   Overcast
12:35 AM 28.4 °F 19.7 °F 23.0 °F 80% 30.00 in 10.0 mi NNW 9.2 mph - N/A   Overcast
12:55 AM 28.4 °F 19.7 °F 23.0 °F 80% 30.00 in 10.0 mi NNW 9.2 mph - N/A   Overcast
1:15 AM 28.4 °F 19.1 °F 23.0 °F 80% 30.01 in 10.0 mi NNW 10.4 mph - N/A   Overcast
1:35 AM 28.4 °F 19.1 °F 23.0 °F 80% 30.01 in 10.0 mi NNW 10.4 mph - N/A   Overcast
1:55 AM 28.4 °F 19.1 °F 23.0 °F 80% 30.02 in 10.0 mi NNW 10.4 mph - N/A   Overcast
2:15 AM 28.4 °F 19.7 °F 23.0 °F 80% 30.02 in 10.0 mi NNW 9.2 mph - N/A   Overcast
2:35 AM 28.4 °F 18.5 °F 23.0 °F 80% 30.02 in 10.0 mi NNW 11.5 mph - N/A   Overcast
2:55 AM 30.2 °F 21.9 °F 23.0 °F 75% 30.02 in 10.0 mi North 9.2 mph - N/A   Overcast
3:15 AM 30.2 °F 19.8 °F 23.0 °F 75% 30.02 in 10.0 mi North 13.8 mph - N/A   Overcast
3:55 AM 30.2 °F 18.9 °F 21.2 °F 69% 30.03 in 10.0 mi NNE 16.1 mph 20.7 mph N/A   Overcast
4:15 AM 30.2 °F 20.2 °F 21.2 °F 69% 30.04 in 10.0 mi North 12.7 mph - N/A   Overcast
4:35 AM 30.2 °F 18.9 °F 21.2 °F 69% 30.04 in 10.0 mi North 16.1 mph 20.7 mph N/A   Overcast
4:55 AM 30.2 °F 18.9 °F 21.2 °F 69% 30.06 in 10.0 mi NNE 16.1 mph 21.9 mph N/A   Overcast
5:15 AM 28.4 °F 15.8 °F 21.2 °F 74% 30.06 in 10.0 mi NNE 18.4 mph 21.9 mph N/A   Overcast
5:35 AM 28.4 °F 16.2 °F 21.2 °F 74% 30.07 in 10.0 mi NNE 17.3 mph - N/A   Overcast
5:55 AM 28.4 °F 17.0 °F 21.2 °F 74% 30.07 in 10.0 mi NNE 15.0 mph - N/A   Overcast
6:15 AM 28.4 °F 17.0 °F 21.2 °F 74% 30.08 in 10.0 mi NNE 15.0 mph - N/A   Overcast
6:35 AM 28.4 °F 16.6 °F 21.2 °F 74% 30.09 in 10.0 mi NNE 16.1 mph 23.0 mph N/A   Overcast
6:55 AM 28.4 °F 15.8 °F 19.4 °F 69% 30.09 in 10.0 mi NNE 18.4 mph 25.3 mph N/A   Overcast
7:15 AM 28.4 °F 16.6 °F 19.4 °F 69% 30.10 in 10.0 mi NNE 16.1 mph 20.7 mph N/A   Overcast
7:35 AM 28.4 °F 17.5 °F 21.2 °F 74% 30.10 in 10.0 mi NNE 13.8 mph 19.6 mph N/A   Overcast
7:55 AM 28.4 °F 16.6 °F 21.2 °F 74% 30.10 in 10.0 mi NNE 16.1 mph - N/A   Overcast
8:15 AM 28.4 °F 18.5 °F 21.2 °F 74% 30.11 in 10.0 mi NNE 11.5 mph 19.6 mph N/A   Overcast
8:35 AM 28.4 °F 16.2 °F 21.2 °F 74% 30.11 in 10.0 mi NNE 17.3 mph 21.9 mph N/A   Overcast
8:55 AM 28.4 °F 19.1 °F 21.2 °F 74% 30.11 in 10.0 mi NNE 10.4 mph 16.1 mph N/A   Overcast
9:15 AM 28.4 °F 18.5 °F 21.2 °F 74% 30.11 in 10.0 mi NNE 11.5 mph - N/A   Overcast
9:35 AM 28.4 °F 19.7 °F 21.2 °F 74% 30.12 in 10.0 mi NNE 9.2 mph - N/A   Overcast
9:55 AM 28.4 °F 18.5 °F 21.2 °F 74% 30.12 in 10.0 mi NNE 11.5 mph - N/A   Overcast
10:15 AM 28.4 °F 18.0 °F 21.2 °F 74% 30.13 in 10.0 mi NNE 12.7 mph 19.6 mph N/A   Overcast
10:35 AM 28.4 °F 19.7 °F 21.2 °F 74% 30.13 in 10.0 mi NNE 9.2 mph - N/A   Overcast
10:55 AM 28.4 °F 18.0 °F 21.2 °F 74% 30.14 in 10.0 mi NNE 12.7 mph - N/A   Overcast
11:15 AM 28.4 °F 18.5 °F 21.2 °F 74% 30.14 in 10.0 mi NNE 11.5 mph - N/A   Overcast
11:35 AM 28.4 °F 19.1 °F 21.2 °F 74% 30.14 in 10.0 mi North 10.4 mph - N/A   Overcast
11:55 AM 28.4 °F 18.0 °F 21.2 °F 74% 30.14 in 10.0 mi NE 12.7 mph - N/A   Overcast
12:15 PM 28.4 °F 19.1 °F 21.2 °F 74% 30.14 in 10.0 mi North 10.4 mph - N/A   Overcast
12:35 PM 28.4 °F 18.5 °F 21.2 °F 74% 30.14 in 10.0 mi NNE 11.5 mph 17.3 mph N/A   Overcast
12:55 PM 28.4 °F 19.7 °F 21.2 °F 74% 30.14 in 10.0 mi NNE 9.2 mph - N/A   Overcast
1:15 PM 30.2 °F 20.8 °F 21.2 °F 69% 30.14 in 10.0 mi NNE 11.5 mph - N/A   Overcast
1:35 PM 30.2 °F 19.8 °F 21.2 °F 69% 30.13 in 10.0 mi NNE 13.8 mph - N/A   Overcast
1:55 PM 30.2 °F 19.8 °F 21.2 °F 69% 30.13 in 10.0 mi NNE 13.8 mph - N/A   Overcast
2:15 PM 30.2 °F 21.3 °F 19.4 °F 64% 30.13 in 10.0 mi NNE 10.4 mph - N/A   Overcast
2:35 PM 30.2 °F 20.8 °F 21.2 °F 69% 30.14 in 10.0 mi NNE 11.5 mph - N/A   Overcast
2:55 PM 30.2 °F 19.8 °F 19.4 °F 64% 30.14 in 10.0 mi NNE 13.8 mph - N/A   Overcast
3:15 PM 28.4 °F 17.0 °F 19.4 °F 69% 30.14 in 10.0 mi NNE 15.0 mph - N/A   Overcast
3:35 PM 28.4 °F 18.5 °F 19.4 °F 69% 30.14 in 10.0 mi NNE 11.5 mph - N/A   Overcast
3:55 PM 28.4 °F 18.0 °F 19.4 °F 69% 30.14 in 10.0 mi North 12.7 mph - N/A   Overcast
4:15 PM 28.4 °F 19.1 °F 19.4 °F 69% 30.15 in 10.0 mi NNE 10.4 mph - N/A   Overcast
4:35 PM 28.4 °F 19.1 °F 19.4 °F 69% 30.15 in 10.0 mi North 10.4 mph - N/A   Overcast
4:55 PM 28.4 °F 19.1 °F 19.4 °F 69% 30.15 in 10.0 mi NNE 10.4 mph - N/A   Overcast
5:15 PM 28.4 °F 17.5 °F 19.4 °F 69% 30.16 in 10.0 mi NNE 13.8 mph - N/A   Overcast
6:15 PM 26.6 °F 15.2 °F 19.4 °F 74% 30.17 in 10.0 mi NE 13.8 mph - N/A   Overcast
6:35 PM 26.6 °F 16.2 °F 17.6 °F 69% 30.18 in 10.0 mi NE 11.5 mph - N/A   Overcast
7:15 PM 26.6 °F 16.8 °F 17.6 °F 69% 30.19 in 10.0 mi NE 10.4 mph - N/A   Overcast
7:35 PM 24.8 °F 14.6 °F 17.6 °F 74% 30.19 in 10.0 mi NE 10.4 mph - N/A   Overcast
7:55 PM 24.8 °F 13.4 °F 17.6 °F 74% 30.19 in 10.0 mi NNE 12.7 mph - N/A   Overcast
8:15 PM 24.8 °F 14.0 °F 17.6 °F 74% 30.19 in 10.0 mi NNE 11.5 mph - N/A   Overcast
8:35 PM 24.8 °F 16.1 °F 17.6 °F 74% 30.19 in 10.0 mi NNE 8.1 mph - N/A   Overcast
8:55 PM 24.8 °F 14.0 °F 17.6 °F 74% 30.20 in 10.0 mi NE 11.5 mph - N/A   Overcast
9:15 PM 23.0 °F 13.9 °F 17.6 °F 80% 30.20 in 10.0 mi NE 8.1 mph - N/A   Overcast
9:35 PM 23.0 °F 11.1 °F 17.6 °F 80% 30.20 in 10.0 mi NE 12.7 mph 16.1 mph N/A   Overcast
9:55 PM 23.0 °F 11.7 °F 15.8 °F 74% 30.21 in 10.0 mi NE 11.5 mph - N/A   Overcast
10:15 PM 23.0 °F 11.7 °F 17.6 °F 80% 30.21 in 10.0 mi ENE 11.5 mph - N/A   Overcast
10:35 PM 23.0 °F 9.6 °F 15.8 °F 74% 30.21 in 10.0 mi ENE 16.1 mph 21.9 mph N/A   Overcast
10:55 PM 23.0 °F 11.1 °F 15.8 °F 74% 30.22 in 10.0 mi ENE 12.7 mph - N/A   Overcast
11:15 PM 23.0 °F 13.9 °F 15.8 °F 74% 30.22 in 10.0 mi ENE 8.1 mph - N/A   Overcast
11:35 PM 23.0 °F 11.7 °F 14.0 °F 68% 30.21 in 10.0 mi ENE 11.5 mph - N/A   Overcast
11:55 PM 23.0 °F 11.1 °F 14.0 °F 68% 30.21 in 10.0 mi ENE 12.7 mph 17.3 mph N/A   Overcast